FALCON 9 R/B, 59347

Orbit data source: Space-Track

FALCON 9 R/B, 59347 is space debris in HEO originally from a launch on Sat, 30 Mar 2024 UTC launched from the Air Force Eastern Test Range (AFETR). Debris objects in space refer to the collection of defunct objects orbiting the Earth. Examples of debris include non-operational satellites, rocket bodies, and fragments generated from explosions, collisions, or faulty payload assembly.

Loading next visibility...
Identifier
59347, 2024-059B
Orbit
HEO
Last TLE update
3 days ago
Origin
Manufacturer
SpaceX
Mission
Spacecraft
Bus & Motor
F9ST2, Unknown motor
Mass
~4,000 kg wet, ~4,000 kg dry
Launch date (UTC)
2024-03-30 (1 year ago)
Launch vehicle
Unknown
Launch site
Air Force Eastern Test Range (AFETR)
Object type
Payload
Rocket body
Debris
Shape & HBR
Cyl, 15.53 m
Radar Cross Section
39.980 m², Large (>1 m²)

Expand to show TLE details & history

TLE from 3 days ago
0 FALCON 9 R/B
1 59347U 24059B   25187.35088016 -.00000047  00000-0  46282-3 0  9999
2 59347  25.3505 264.4736 8143244 321.3147   2.8563  1.24194985  5719
Epoch: 2025-07-06T08:25Z
TLE epoch observation values (Epoch: 2025-07-06T08:25:16.045Z)
Latitude
0.00026°
Longitude
-146.36139°
Altitude
1,157.912 km
Speed
9.74 km/s
True Right ascension
17h 38m 07s
True Declination
0° 00' 01"
Sunlit
Object was in full shadow at epoch
Visualization orbit readout
Latitude
25.28906°
Longitude
-53.52419°
Altitude
19,919.224 km
Speed
4.406 km/s
Apparent Right ascension
23h 08m 09s
Apparent Declination
18° 48' 27"
Sunlit
Object is in daylight
Visualization observer readout
Local Sidereal Time
03:10:10
Azimuth
266.402° W
Elevation
34.357°
Doppler factor
1
Orbital elements
Apogee altitude
59,960.632 km
Perigee altitude
410.886 km
Semi-major axis
36,563.896 km
Eccentricity
0.81432
Inclination
25.3505°
RAAN
264.4736°
Arg. of periapsis
321.3147°
True anomaly
Unknown
Mean anomaly
2.8563°
Eccentric anomaly
Unknown
Mean motion
0.31043 °/min
Orbital period
1,159.68 mins
BSTAR
0.00046282
Loading maneuver chart data...
Loading SW <> Apogee altitude chart data...
Loading historical data...
Loading historical data...
Loading historical data...
Loading historical data...
Loading historical data...
Loading historical data...
Loading historical data...
Other satellites on launch #59 in the year 2024 (2024-03-30 UTC)

FALCON 9 R/B Visibility forecast

Observer location: undefined°, undefined°

Span
Click to sort rows by Start time (UTC) header in descending order
Start Az.
Max El. time (UTC)
Max El. Az.
Max El.
End time (UTC)
End Az.
298 mins2025-07-09 14:59:26.010Z266.369° W2025-07-09 15:45:26.010Z264.154° W31.863°2025-07-09 19:57:26.010Z281.336° WNW
347 mins2025-07-10 09:12:26.010Z229.947° WSW2025-07-10 13:36:26.010Z172.341° S42.879°2025-07-10 14:59:26.010Z209.416° SW
|